Location: Multiple Mirror Telescope
(31.6889°N, 110.8853°W)
Time: 14:23:27
(UTC-07:00)

ISS - Visible Passes

Search period start: 16 April 2026 00:00
Search period end: 26 April 2026 00:00
Orbit: 415 x 424 km, 51.6° (Epoch: 16 April)

Date Brightness Start Highest point End Pass type
(mag) Time Alt. Az. Time Alt. Az. Time Alt. Az.
16 Apr -1.5 04:06:48 18° SE 04:07:19 18° SE 04:09:43 10° E visible
17 Apr -3.5 04:54:37 22° WSW 04:56:31 55° NW 04:59:49 10° NE visible
18 Apr -3.6 04:09:20 70° E 04:09:20 70° E 04:12:29 10° NE visible
19 Apr -0.8 03:23:58 17° ENE 03:23:58 17° ENE 03:24:54 10° ENE visible
19 Apr -1.8 04:56:56 13° WNW 04:58:41 18° NW 05:01:05 10° N visible
20 Apr -2.4 04:11:27 29° NNW 04:11:27 29° NNW 04:14:09 10° NNE visible
21 Apr -1.0 03:25:54 18° NNE 03:25:54 18° NNE 03:26:58 10° NE visible
22 Apr -1.2 04:13:14 11° NW 04:13:24 12° NNW 04:14:37 10° N visible
23 Apr -0.8 03:27:32 13° N 03:27:32 13° N 03:28:08 10° N visible
